Regional Weather Roundup
Issued by NWS

Home | Current Version | Previous Version | Graphics & Text | Print | Product List | Glossary On
Versions: 1 2 3 4 5 6 7 8 9 10 11 12 13 14 15 16 17 18 19 20 21 22 23 24 25 26 27 28 29 30 31 32 33 34 35 36 37 38 39 40 41 42 43 44 45 46 47 48 49 50
000
ASUS43 KIND 010159
RWRIN

WEATHER ROUNDUP FOR INDIANA
NATIONAL WEATHER SERVICE INDIANAPOLIS IN
1000 PM EDT FRI SEP 30 2016

NOTE: "FAIR" INDICATES FEW OR NO CLOUDS BELOW 12,000 FEET WITH NO
SIGNIFICANT WEATHER AND/OR OBSTRUCTIONS TO VISIBILITY.

* - STATION DOES NOT REPORT WEATHER SUCH AS PRECIPITATION OR FOG.

+ - STATION NOT QUALITY CONTROLLED BY THE NATIONAL WEATHER SERVICE.
    USE DATA WITH CAUTION...ESPECIALLY DEWPOINT AND RELATIVE
    HUMIDITY OBSERVATIONS.

INZ001>003-010>013-019-020-010300-
NORTHWEST INDIANA

CITY           SKY/WX    TMP DP  RH WIND       PRES   REMARKS
GARY /AIRPORT/ LGT RAIN  63  61  94 E12G23    30.06S
RENSSELAER +   CLOUDY    61  59  94 NE6       30.03S
VALPARAISO     CLOUDY    60  58  92 NE6       30.05S

$$

LMZ046-743>745-010300-
SOUTHERN LAKE MICHIGAN

STATION/POSITION TIME  TEMP    WIND        PRES    WAVE
                       AIR SEA DIR/SP/G            HT
                 (UTC) (F)     (DEG/KT/KT) (MB)    (FT)
BURNS HARBOR     0140   62      60/ 15/ 19 1017.9R
MICHIGAN CITY    0130   61      30/ 14/ 15   N/A
5NW MICH CITY    0150   61 64   40/ 12/ 16   N/A     4

$$

INZ004-005-014>016-021>024-010300-
NORTH CENTRAL INDIANA

CITY           SKY/WX    TMP DP  RH WIND       PRES   REMARKS
GOSHEN         CLOUDY    60  56  86 E9        30.05S
PERU/GRISSOM   MOCLDY    59  59 100 CALM      30.00R
SOUTH BEND     LGT RAIN  60  58  92 E6        30.06R

$$

INZ006>009-017-018-025>027-010300-
NORTHEAST INDIANA

CITY           SKY/WX    TMP DP  RH WIND       PRES   REMARKS
ANGOLA *+        N/A     57  46  67 E9        30.06S
FORT WAYNE     CLOUDY    59  57  93 E8        30.05R
KENDALLVILLE + PTCLDY    57  57  98 E3        30.06S

$$

INZ028-029-035-036-043>045-051>053-010300-
WEST CENTRAL INDIANA

CITY           SKY/WX    TMP DP  RH WIND       PRES   REMARKS
CRAWFORDSVL +  CLOUDY    57  57 100 CALM      30.00S
GREENCASTLE +  CLOUDY    55  55 100 CALM      30.01S
LAFAYETTE      CLOUDY    62  59  90 NE7       30.00S
TERRE HAUTE      N/A     59  57  93 CALM      29.99F

$$

INZ030>032-037>040-046>048-054>057-064-065-010300-
CENTRAL INDIANA

CITY           SKY/WX    TMP DP  RH WIND       PRES   REMARKS
COLUMBUS       PTCLDY    55  55 100 S5        30.02R
INDIANAPOLIS   CLOUDY    59  57  93 SE5       29.99S
-EAGLE CREEK   CLOUDY    60  56  86 SE3       29.99S
KOKOMO *+      CLOUDY    60  57  89 E6        30.02S
MT COMFORT *+  PTCLDY    55  55 100 CALM      30.01S
SHELBYVILLE    MOCLDY    58  51  78 S5        30.00S

$$

INZ033-034-041-042-049-050-058-059-010300-
EAST CENTRAL INDIANA

CITY           SKY/WX    TMP DP  RH WIND       PRES   REMARKS
MUNCIE         MOCLDY    60  58  92 E5        30.01S

$$

INZ060-061-067>069-081>083-085>088-010300-
SOUTHWEST INDIANA

CITY           SKY/WX    TMP DP  RH WIND       PRES   REMARKS
EVANSVILLE     MOCLDY    58  56  93 CALM      29.99F
HUNTINGBURG *+   N/A     55  52  88 S6        30.01S

$$

INZ062-063-066-070>080-084-089>092-010300-
SOUTH CENTRAL AND SOUTHEAST INDIANA

CITY           SKY/WX    TMP DP  RH WIND       PRES   REMARKS
BLOOMINGTON    PTCLDY    55  51  86 CALM      30.01R
MADISON *+     PTCLDY    52  50  93 CALM      30.05R
SEYMOUR +      MOCLDY    55  52  88 CALM      30.02R

$$





USA.gov is the U.S. government's official web portal to all federal, state and local government web resources and services.